View from above orbital plane
|
View from above satellite
|
Ground track
|
The orbit data is extracted from the following two-line orbital elements,
1 42017U 17008BX 22178.14860476 .00013648 00000-0 40485-3 0 9992
2 42017 97.2688 244.1225 0004962 189.1232 170.9923 15.34923272298562
Epoch (UTC): | 27 June 2022 03:33:59 |
Eccentricity: | 0.0004962 |
inclination: | 97.2688° |
perigee height: | 458 km |
apogee height: | 464 km |
right ascension of ascending node: | 244.1225° |
argument of perigee: | 189.1232° |
revolutions per day: | 15.34923272 |
mean anomaly at epoch: | 170.9923° |
orbit number at epoch: | 29856 |
The dashed part of the orbit path shows where the satellite is in the earth's shadow,
|
|